(2020 VW3) |
Classification: Apollo [NEO] SPK-ID: 54087763 |
[ hide orbit diagram ]
For accurate long-term ephemerides, please instead use our Horizons system.This orbit viewer was implemented using two-body methods, and hence should not be used for determining accurate long-term trajectories (over several years or decades) or planetary encounter circumstances.
Orbital Elements at Epoch 2459165.5 (2020-Nov-12.0) TDB
Reference: JPL 1 (heliocentric ecliptic J2000)
Element | Value | Uncertainty (1-sigma) | Units |
e | .5070645236197564 | 0.027124 | |
a | 1.234182264625485 | 0.043777 | au |
q | .6083722225532112 | 0.011919 | au |
i | 2.712164774046633 | 0.17812 | deg |
node | 40.90396348035528 | 0.3893 | deg |
peri | 264.5868304320753 | 0.1211 | deg |
M | 45.20173811487774 | 3.5953 | deg |
tp | 2459102.618917025014 (2020-Sep-10.11891703) | 1.656 | TDB |
period | 500.8035269233183 1.37 | 26.646 0.07295 | d yr |
n | .7188447777348066 | 0.038247 | deg/d |
Q | 1.859992306697758 | 0.065975 | au |
|
| | Orbit Determination Parameters
Additional Information
|
[ show covariance matrix ]
Physical Parameter Table
Parameter |
Symbol |
Value |
Units |
Sigma |
Reference |
Notes |
absolute magnitude |
H |
26.933 |
|
.2517 |
1 |
autocmod 2.8 |
|
[ show close-approach data ]
|